Terug naar catalogus

STARLINK-37342

ActiefCommunicatieSSO
NORAD 68752·PAYLOAD·🇺🇸 United States

Gelanceerd Apr 15, 2026 vanaf Vandenberg Space Force Base

Loading…

Volgende Passages (komende 24 uur)

TLE

VersSource: CelesTrak SupGP

Epoch: Sep 14, 2026, 22:40 UTC

1 68752C 26082AA  26257.94493056  .00071071  00000+0  22069-2 0  2571
2 68752  97.2845 120.2104 0001931  92.4074  11.9318 15.33392339    10

Volg STARLINK-37342 in realtime met AllMySat

Download on the App Store